Time,TemperatureF,DewpointF,PressureIn,WindDirection,WindDirectionDegrees,WindSpeedMPH,WindSpeedGustMPH,Humidity,HourlyPrecipIn,Conditions,Clouds,dailyrainin,SoftwareType,DateUTC
2015-07-05 00:03:00,69.0,-99.9,-100.00,East,101,2.0,3.0,-999,-99.99,,,-99.99,,2015-07-05 05:03:00,
2015-07-05 00:13:00,68.0,-99.9,-100.00,ESE,104,2.0,3.0,-999,-99.99,,,-99.99,,2015-07-05 05:13:00,
2015-07-05 00:23:00,68.0,-99.9,-100.00,ESE,104,2.0,3.0,-999,-99.99,,,-99.99,,2015-07-05 05:23:00,
2015-07-05 00:34:00,68.0,-99.9,-100.00,ESE,104,2.0,3.0,-999,-99.99,,,-99.99,,2015-07-05 05:34:00,
2015-07-05 00:44:00,68.0,-99.9,-100.00,ESE,116,2.0,3.0,-999,-99.99,,,-99.99,,2015-07-05 05:44:00,
2015-07-05 00:54:00,68.0,-99.9,-100.00,ESE,116,2.0,3.0,-999,-99.99,,,-99.99,,2015-07-05 05:54:00,
2015-07-05 01:04:00,68.0,-99.9,-100.00,ESE,116,2.0,3.0,-999,-99.99,,,-99.99,,2015-07-05 06:04:00,
2015-07-05 01:13:00,68.0,-99.9,-100.00,SE,130,2.0,3.0,-999,-99.99,,,-99.99,,2015-07-05 06:13:00,
2015-07-05 01:23:00,68.0,-99.9,-100.00,SE,130,2.0,3.0,-999,-99.99,,,-99.99,,2015-07-05 06:23:00,
2015-07-05 01:34:00,68.0,-99.9,-100.00,SE,130,2.0,3.0,-999,-99.99,,,-99.99,,2015-07-05 06:34:00,
2015-07-05 01:44:00,69.0,-99.9,-100.00,SSE,157,4.0,6.0,-999,-99.99,,,-99.99,,2015-07-05 06:44:00,
2015-07-05 01:54:00,69.0,-99.9,-100.00,SSE,157,4.0,6.0,-999,-99.99,,,-99.99,,2015-07-05 06:54:00,
2015-07-05 02:03:00,69.0,-99.9,-100.00,SSE,157,4.0,6.0,-999,-99.99,,,-99.99,,2015-07-05 07:03:00,
2015-07-05 02:13:00,69.0,-99.9,-100.00,SSE,165,4.0,6.0,-999,-99.99,,,-99.99,,2015-07-05 07:13:00,
2015-07-05 02:23:00,69.0,-99.9,-100.00,SSE,165,4.0,6.0,-999,-99.99,,,-99.99,,2015-07-05 07:23:00,
2015-07-05 02:34:00,69.0,-99.9,-100.00,SSE,165,4.0,6.0,-999,-99.99,,,-99.99,,2015-07-05 07:34:00,
2015-07-05 02:44:00,68.0,-99.9,-100.00,SSE,152,2.0,5.0,-999,-99.99,,,-99.99,,2015-07-05 07:44:00,
2015-07-05 02:54:00,68.0,-99.9,-100.00,SSE,152,2.0,5.0,-999,-99.99,,,-99.99,,2015-07-05 07:54:00,
2015-07-05 03:03:00,68.0,-99.9,-100.00,SSE,152,2.0,5.0,-999,-99.99,,,-99.99,,2015-07-05 08:03:00,
2015-07-05 03:14:00,67.0,-99.9,-100.00,SE,137,3.0,5.0,-999,-99.99,,,-99.99,,2015-07-05 08:14:00,
2015-07-05 03:23:00,67.0,-99.9,-100.00,SE,137,3.0,5.0,-999,-99.99,,,-99.99,,2015-07-05 08:23:00,
2015-07-05 03:34:00,67.0,-99.9,-100.00,SE,137,3.0,5.0,-999,-99.99,,,-99.99,,2015-07-05 08:34:00,
2015-07-05 03:44:00,65.0,-99.9,-100.00,ESE,106,2.0,3.0,-999,-99.99,,,-99.99,,2015-07-05 08:44:00,
2015-07-05 03:53:00,65.0,-99.9,-100.00,ESE,106,2.0,3.0,-999,-99.99,,,-99.99,,2015-07-05 08:53:00,
2015-07-05 04:03:00,65.0,-99.9,-100.00,ESE,106,2.0,3.0,-999,-99.99,,,-99.99,,2015-07-05 09:03:00,
2015-07-05 04:13:00,64.0,-99.9,-100.00,ESE,104,3.0,4.0,-999,-99.99,,,-99.99,,2015-07-05 09:13:00,
2015-07-05 04:23:00,64.0,-99.9,-100.00,ESE,104,3.0,4.0,-999,-99.99,,,-99.99,,2015-07-05 09:23:00,
2015-07-05 04:34:00,64.0,-99.9,-100.00,ESE,104,3.0,4.0,-999,-99.99,,,-99.99,,2015-07-05 09:34:00,
2015-07-05 04:44:00,64.0,-99.9,-100.00,ESE,108,3.0,3.0,-999,-99.99,,,-99.99,,2015-07-05 09:44:00,
2015-07-05 04:54:00,64.0,-99.9,-100.00,ESE,108,3.0,3.0,-999,-99.99,,,-99.99,,2015-07-05 09:54:00,
2015-07-05 05:03:00,64.0,-99.9,-100.00,ESE,108,3.0,3.0,-999,-99.99,,,-99.99,,2015-07-05 10:03:00,
2015-07-05 05:13:00,63.0,-99.9,-100.00,East,101,3.0,4.0,-999,-99.99,,,-99.99,,2015-07-05 10:13:00,
2015-07-05 05:23:00,63.0,-99.9,-100.00,East,101,3.0,4.0,-999,-99.99,,,-99.99,,2015-07-05 10:23:00,
2015-07-05 05:33:00,63.0,-99.9,-100.00,East,101,3.0,4.0,-999,-99.99,,,-99.99,,2015-07-05 10:33:00,
2015-07-05 05:44:00,63.0,-99.9,-100.00,East,101,3.0,4.0,-999,-99.99,,,-99.99,,2015-07-05 10:44:00,
2015-07-05 05:54:00,63.0,-99.9,-100.00,East,101,3.0,4.0,-999,-99.99,,,-99.99,,2015-07-05 10:54:00,
2015-07-05 06:04:00,63.0,-99.9,-100.00,East,101,3.0,4.0,-999,-99.99,,,-99.99,,2015-07-05 11:04:00,
2015-07-05 06:13:00,63.0,-99.9,-100.00,East,97,3.0,4.0,-999,-99.99,,,-99.99,,2015-07-05 11:13:00,
2015-07-05 06:23:00,63.0,-99.9,-100.00,East,97,3.0,4.0,-999,-99.99,,,-99.99,,2015-07-05 11:23:00,
2015-07-05 06:34:00,63.0,-99.9,-100.00,East,97,3.0,4.0,-999,-99.99,,,-99.99,,2015-07-05 11:34:00,
2015-07-05 06:44:00,62.0,-99.9,-100.00,ESE,104,4.0,4.0,-999,-99.99,,,-99.99,,2015-07-05 11:44:00,
2015-07-05 06:54:00,62.0,-99.9,-100.00,ESE,104,4.0,4.0,-999,-99.99,,,-99.99,,2015-07-05 11:54:00,
2015-07-05 07:04:00,62.0,-99.9,-100.00,ESE,104,4.0,4.0,-999,-99.99,,,-99.99,,2015-07-05 12:04:00,
2015-07-05 07:13:00,64.0,-99.9,-100.00,East,87,3.0,3.0,-999,-99.99,,,-99.99,,2015-07-05 12:13:00,
2015-07-05 07:24:00,64.0,-99.9,-100.00,East,87,3.0,3.0,-999,-99.99,,,-99.99,,2015-07-05 12:24:00,
2015-07-05 07:34:00,64.0,-99.9,-100.00,East,87,3.0,3.0,-999,-99.99,,,-99.99,,2015-07-05 12:34:00,
2015-07-05 07:44:00,66.0,-99.9,-100.00,East,93,3.0,3.0,-999,-99.99,,,-99.99,,2015-07-05 12:44:00,
2015-07-05 07:54:00,66.0,-99.9,-100.00,East,93,3.0,3.0,-999,-99.99,,,-99.99,,2015-07-05 12:54:00,
2015-07-05 08:04:00,66.0,-99.9,-100.00,East,93,3.0,3.0,-999,-99.99,,,-99.99,,2015-07-05 13:04:00,
2015-07-05 08:14:00,69.0,-99.9,-100.00,SE,129,3.0,5.0,-999,-99.99,,,-99.99,,2015-07-05 13:14:00,
2015-07-05 08:24:00,69.0,-99.9,-100.00,SE,129,3.0,5.0,-999,-99.99,,,-99.99,,2015-07-05 13:24:00,
2015-07-05 08:34:00,69.0,-99.9,-100.00,SE,129,3.0,5.0,-999,-99.99,,,-99.99,,2015-07-05 13:34:00,
2015-07-05 08:44:00,69.0,-99.9,-100.00,SE,144,5.0,8.0,-999,-99.99,,,-99.99,,2015-07-05 13:44:00,
2015-07-05 08:54:00,69.0,-99.9,-100.00,SE,144,5.0,8.0,-999,-99.99,,,-99.99,,2015-07-05 13:54:00,
2015-07-05 09:03:00,69.0,-99.9,-100.00,SE,144,5.0,8.0,-999,-99.99,,,-99.99,,2015-07-05 14:03:00,
2015-07-05 09:13:00,71.0,-99.9,-100.00,SSE,154,6.0,8.0,-999,-99.99,,,-99.99,,2015-07-05 14:13:00,
2015-07-05 09:23:00,71.0,-99.9,-100.00,SSE,154,6.0,8.0,-999,-99.99,,,-99.99,,2015-07-05 14:23:00,
2015-07-05 09:34:00,71.0,-99.9,-100.00,SSE,154,6.0,8.0,-999,-99.99,,,-99.99,,2015-07-05 14:34:00,
2015-07-05 09:44:00,73.0,-99.9,-100.00,SSE,160,6.0,10.0,-999,-99.99,,,-99.99,,2015-07-05 14:44:00,
2015-07-05 09:54:00,73.0,-99.9,-100.00,SSE,160,6.0,10.0,-999,-99.99,,,-99.99,,2015-07-05 14:54:00,
2015-07-05 10:04:00,73.0,-99.9,-100.00,SSE,160,6.0,10.0,-999,-99.99,,,-99.99,,2015-07-05 15:04:00,
2015-07-05 10:13:00,76.0,-99.9,-100.00,SSE,152,4.0,6.0,-999,-99.99,,,-99.99,,2015-07-05 15:13:00,
2015-07-05 10:23:00,76.0,-99.9,-100.00,SSE,152,4.0,6.0,-999,-99.99,,,-99.99,,2015-07-05 15:23:00,
2015-07-05 10:34:00,76.0,-99.9,-100.00,SSE,152,4.0,6.0,-999,-99.99,,,-99.99,,2015-07-05 15:34:00,
2015-07-05 10:44:00,76.0,-99.9,-100.00,SSE,151,4.0,6.0,-999,-99.99,,,-99.99,,2015-07-05 15:44:00,
2015-07-05 10:54:00,76.0,-99.9,-100.00,SSE,151,4.0,6.0,-999,-99.99,,,-99.99,,2015-07-05 15:54:00,
2015-07-05 11:04:00,76.0,-99.9,-100.00,SSE,151,4.0,6.0,-999,-99.99,,,-99.99,,2015-07-05 16:04:00,
2015-07-05 11:14:00,77.0,-99.9,-100.00,SSE,162,5.0,8.0,-999,-99.99,,,-99.99,,2015-07-05 16:14:00,
2015-07-05 11:24:00,77.0,-99.9,-100.00,SSE,162,5.0,8.0,-999,-99.99,,,-99.99,,2015-07-05 16:24:00,
2015-07-05 11:34:00,77.0,-99.9,-100.00,SSE,162,5.0,8.0,-999,-99.99,,,-99.99,,2015-07-05 16:34:00,
2015-07-05 11:44:00,78.0,-99.9,-100.00,SSE,147,6.0,8.0,-999,-99.99,,,-99.99,,2015-07-05 16:44:00,
2015-07-05 11:54:00,78.0,-99.9,-100.00,SSE,147,6.0,8.0,-999,-99.99,,,-99.99,,2015-07-05 16:54:00,
2015-07-05 12:04:00,78.0,-99.9,-100.00,SSE,147,6.0,8.0,-999,-99.99,,,-99.99,,2015-07-05 17:04:00,
2015-07-05 12:13:00,79.0,-99.9,-100.00,SSE,160,8.0,12.0,-999,-99.99,,,-99.99,,2015-07-05 17:13:00,
2015-07-05 12:24:00,79.0,-99.9,-100.00,SSE,160,8.0,12.0,-999,-99.99,,,-99.99,,2015-07-05 17:24:00,
2015-07-05 12:34:00,79.0,-99.9,-100.00,SSE,160,8.0,12.0,-999,-99.99,,,-99.99,,2015-07-05 17:34:00,
2015-07-05 12:45:00,79.0,-99.9,-100.00,SSE,162,12.0,15.0,-999,-99.99,,,-99.99,,2015-07-05 17:45:00,
2015-07-05 12:54:00,79.0,-99.9,-100.00,SSE,162,12.0,15.0,-999,-99.99,,,-99.99,,2015-07-05 17:54:00,
2015-07-05 13:04:00,79.0,-99.9,-100.00,SSE,162,12.0,15.0,-999,-99.99,,,-99.99,,2015-07-05 18:04:00,
2015-07-05 13:14:00,81.0,-99.9,-100.00,SSE,159,8.0,12.0,-999,-99.99,,,-99.99,,2015-07-05 18:14:00,
2015-07-05 13:24:00,81.0,-99.9,-100.00,SSE,159,8.0,12.0,-999,-99.99,,,-99.99,,2015-07-05 18:24:00,
2015-07-05 13:34:00,81.0,-99.9,-100.00,SSE,159,8.0,12.0,-999,-99.99,,,-99.99,,2015-07-05 18:34:00,
2015-07-05 13:45:00,81.0,-99.9,-100.00,SSE,154,9.0,13.0,-999,-99.99,,,-99.99,,2015-07-05 18:45:00,
2015-07-05 13:54:00,81.0,-99.9,-100.00,SSE,154,9.0,13.0,-999,-99.99,,,-99.99,,2015-07-05 18:54:00,
2015-07-05 14:04:00,81.0,-99.9,-100.00,SSE,154,9.0,13.0,-999,-99.99,,,-99.99,,2015-07-05 19:04:00,
2015-07-05 14:13:00,83.0,-99.9,-100.00,SSE,151,8.0,11.0,-999,-99.99,,,-99.99,,2015-07-05 19:13:00,
2015-07-05 14:24:00,83.0,-99.9,-100.00,SSE,151,8.0,11.0,-999,-99.99,,,-99.99,,2015-07-05 19:24:00,
2015-07-05 14:34:00,83.0,-99.9,-100.00,SSE,151,8.0,11.0,-999,-99.99,,,-99.99,,2015-07-05 19:34:00,
2015-07-05 14:44:00,82.0,-99.9,-100.00,SSE,149,10.0,12.0,-999,-99.99,,,-99.99,,2015-07-05 19:44:00,
2015-07-05 14:54:00,82.0,-99.9,-100.00,SSE,149,10.0,12.0,-999,-99.99,,,-99.99,,2015-07-05 19:54:00,
2015-07-05 15:04:00,82.0,-99.9,-100.00,SSE,149,10.0,12.0,-999,-99.99,,,-99.99,,2015-07-05 20:04:00,
2015-07-05 15:13:00,82.0,-99.9,-100.00,SSE,150,9.0,10.0,-999,-99.99,,,-99.99,,2015-07-05 20:13:00,
2015-07-05 15:23:00,82.0,-99.9,-100.00,SSE,150,9.0,10.0,-999,-99.99,,,-99.99,,2015-07-05 20:23:00,
2015-07-05 15:34:00,82.0,-99.9,-100.00,SSE,150,9.0,10.0,-999,-99.99,,,-99.99,,2015-07-05 20:34:00,
2015-07-05 15:44:00,82.0,-99.9,-100.00,SSE,159,8.0,12.0,-999,-99.99,,,-99.99,,2015-07-05 20:44:00,
2015-07-05 15:54:00,82.0,-99.9,-100.00,SSE,159,8.0,12.0,-999,-99.99,,,-99.99,,2015-07-05 20:54:00,
2015-07-05 16:03:00,82.0,-99.9,-100.00,SSE,159,8.0,12.0,-999,-99.99,,,-99.99,,2015-07-05 21:03:00,
2015-07-05 16:13:00,82.0,-99.9,-100.00,SSE,148,9.0,11.0,-999,-99.99,,,-99.99,,2015-07-05 21:13:00,
2015-07-05 16:23:00,82.0,-99.9,-100.00,SSE,148,9.0,11.0,-999,-99.99,,,-99.99,,2015-07-05 21:23:00,
2015-07-05 16:34:00,82.0,-99.9,-100.00,SSE,148,9.0,11.0,-999,-99.99,,,-99.99,,2015-07-05 21:34:00,
2015-07-05 16:44:00,83.0,-99.9,-100.00,SSE,159,7.0,9.0,-999,-99.99,,,-99.99,,2015-07-05 21:44:00,
2015-07-05 16:55:00,83.0,-99.9,-100.00,SSE,159,7.0,9.0,-999,-99.99,,,-99.99,,2015-07-05 21:55:00,
2015-07-05 17:04:00,83.0,-99.9,-100.00,SSE,159,7.0,9.0,-999,-99.99,,,-99.99,,2015-07-05 22:04:00,
2015-07-05 17:13:00,82.0,-99.9,-100.00,SE,143,7.0,10.0,-999,-99.99,,,-99.99,,2015-07-05 22:13:00,
2015-07-05 17:24:00,82.0,-99.9,-100.00,SE,143,7.0,10.0,-999,-99.99,,,-99.99,,2015-07-05 22:24:00,
2015-07-05 17:34:00,82.0,-99.9,-100.00,SE,143,7.0,10.0,-999,-99.99,,,-99.99,,2015-07-05 22:34:00,
2015-07-05 17:44:00,84.0,-99.9,-100.00,SE,136,6.0,9.0,-999,-99.99,,,-99.99,,2015-07-05 22:44:00,
2015-07-05 17:54:00,84.0,-99.9,-100.00,SE,136,6.0,9.0,-999,-99.99,,,-99.99,,2015-07-05 22:54:00,
2015-07-05 18:04:00,84.0,-99.9,-100.00,SE,136,6.0,9.0,-999,-99.99,,,-99.99,,2015-07-05 23:04:00,
2015-07-05 18:13:00,83.0,-99.9,-100.00,SSE,148,6.0,9.0,-999,-99.99,,,-99.99,,2015-07-05 23:13:00,
2015-07-05 18:23:00,83.0,-99.9,-100.00,SSE,148,6.0,9.0,-999,-99.99,,,-99.99,,2015-07-05 23:23:00,
2015-07-05 18:34:00,83.0,-99.9,-100.00,SSE,148,6.0,9.0,-999,-99.99,,,-99.99,,2015-07-05 23:34:00,
2015-07-05 18:44:00,83.0,-99.9,-100.00,SE,145,9.0,12.0,-999,-99.99,,,-99.99,,2015-07-05 23:44:00,